Theta_e
345 348 351 354 348 347 351 350 347 350 349 349 347 347 348 347 347 351 344 344 345 345 345 343 343 343 344 345 345 343 339 341 340 338 335 333 332 331 331 334 332 332 335 335 335 335 336 336 336
346 346 353 352 347 350 351 347 350 348 349 349 349 349 348 348 346 345 345 344 344 344 345 345 346 345 345 345 345 343 340 339 337 334 333 332 332 331 332 333 331 333 336 336 336 336 336 336 337
344 349 354 343 345 347 351 347 349 349 350 349 349 348 347 347 346 346 346 346 347 346 346 344 345 345 345 345 344 343 335 333 333 333 332 333 332 332 333 332 331 335 335 335 336 336 336 337 336
349 353 344 340 345 347 347 348 350 350 351 350 347 348 348 347 346 344 347 348 347 347 345 344 345 343 343 342 343 339 333 333 332 331 332 333 334 334 334 333 335 333 333 335 336 336 335 336 336
349 344 338 343 347 349 346 347 349 351 351 348 348 348 347 347 342 345 346 346 345 345 345 343 342 342 341 343 342 335 333 334 332 332 332 332 334 334 334 335 333 332 334 335 335 335 334 335 335
342 337 341 343 348 348 345 347 351 352 351 348 347 346 348 345 340 342 344 345 343 344 345 343 343 342 340 337 338 337 334 333 332 330 331 332 334 335 334 332 332 332 335 338 337 335 337 332 334
342 340 342 343 350 349 346 347 351 350 349 349 347 349 350 348 340 339 339 341 344 345 344 343 343 344 339 335 334 334 333 332 331 331 333 335 335 333 332 334 337 337 340 338 337 339 338 335 334
340 340 343 343 348 347 346 349 351 349 350 348 348 349 348 348 341 340 339 343 345 346 347 346 345 345 337 336 336 337 336 336 335 335 336 336 336 334 335 340 338 338 340 341 339 341 341 341 340
340 341 343 342 346 346 347 349 351 351 349 348 349 348 346 348 342 342 344 345 345 348 347 346 337 337 337 338 338 338 337 338 338 337 338 337 336 336 338 340 342 345 342 343 341 341 342 341 343
342 343 342 339 342 345 347 349 351 351 348 348 350 349 346 348 345 345 346 347 347 345 342 341 340 336 339 339 339 339 337 336 337 336 336 336 336 338 343 343 342 343 344 342 341 341 341 341 342
341 343 341 340 340 344 347 349 350 350 349 347 350 351 350 349 348 347 346 344 342 341 342 341 340 339 339 339 340 339 337 336 335 335 335 336 338 341 346 343 343 342 342 343 343 342 343 342 340
340 339 340 340 341 344 346 348 348 347 343 346 349 349 350 349 348 347 346 342 341 341 341 341 340 340 339 338 337 337 337 337 336 335 335 336 340 343 344 343 344 343 343 343 342 342 341 341 341
332 331 336 339 340 344 346 347 347 347 345 348 349 350 349 349 349 349 347 344 341 340 340 340 340 340 340 339 338 337 337 337 337 336 336 337 343 345 342 343 345 344 343 343 343 342 342 343 342
329 333 337 340 340 343 346 346 346 346 349 350 350 349 349 349 350 350 349 346 342 339 339 340 341 341 339 339 339 339 339 339 339 340 342 344 347 346 344 343 343 343 342 341 343 342 342 342 342
339 343 343 341 341 343 344 348 348 347 350 349 349 349 349 350 350 348 343 343 343 342 341 341 342 342 342 342 342 343 342 343 345 343 345 347 347 345 344 343 343 343 342 342 343 343 342 341 339
341 342 345 343 342 343 343 345 346 349 350 349 348 349 349 349 349 348 346 345 344 343 343 342 342 342 344 343 344 346 344 347 346 345 345 346 344 344 344 344 343 342 343 343 344 341 341 339 337
341 342 344 346 342 344 344 344 346 348 349 349 348 348 349 349 351 351 349 346 346 347 345 344 345 344 347 345 347 346 345 345 346 345 345 344 344 343 343 343 343 343 343 345 338 333 328 326 326
342 344 344 347 344 345 346 347 348 348 349 350 350 349 350 351 351 351 348 348 347 348 346 345 345 347 347 346 346 346 346 346 346 346 345 346 345 344 343 342 343 343 343 338 332 330 326 324 328
339 342 344 345 344 345 346 346 349 348 348 349 350 351 350 350 350 351 348 349 348 349 348 348 347 348 348 347 347 345 345 344 347 347 347 346 344 343 345 344 344 340 336 334 332 326 325 337 329
340 342 344 344 344 345 346 347 347 348 348 347 348 350 350 350 351 352 351 349 350 350 349 348 348 347 348 347 346 345 345 346 348 347 345 345 345 345 343 343 340 336 332 323 320 327 330 328 329
338 342 343 344 343 345 347 346 347 348 348 347 347 347 347 348 349 349 350 349 349 349 350 348 347 345 346 347 346 346 347 347 348 343 341 341 342 336 338 339 335 330 320 321 324 326 325 336 331
333 336 342 343 344 346 345 347 348 348 350 349 347 346 346 346 347 347 347 347 348 347 348 348 347 345 343 345 347 347 346 349 347 338 332 336 335 337 339 333 330 320 321 323 326 323 325 327 332
332 332 337 341 345 343 347 346 343 348 350 350 348 347 346 345 346 346 346 347 345 345 346 348 347 345 343 345 346 346 345 346 341 337 335 336 336 337 336 335 323 324 327 329 327 323 325 324 325
328 331 332 338 340 343 342 345 340 349 349 348 346 346 346 345 345 345 346 344 345 345 346 346 346 345 344 344 345 345 342 344 338 334 337 339 333 339 340 331 326 331 332 331 324 323 323 325 328
329 331 334 336 339 337 336 346 343 341 344 345 345 345 345 345 345 345 346 345 345 345 346 346 346 346 343 343 343 341 340 339 331 327 330 328 328 331 332 330 326 329 333 328 323 323 326 327 327
329 330 333 336 337 335 335 341 341 341 339 340 344 344 345 345 345 346 345 345 346 345 346 346 346 346 340 336 338 339 340 335 327 325 326 324 325 328 331 330 327 329 331 327 325 322 323 324 327
329 329 331 332 327 334 336 339 335 338 338 338 340 343 344 345 345 346 346 345 346 347 346 347 346 346 336 329 332 336 339 334 326 323 323 319 322 327 329 323 324 325 327 326 325 324 320 321 327
326 327 328 329 337 334 332 334 333 339 340 341 340 341 342 345 346 347 347 345 346 347 347 348 346 342 329 329 328 331 334 330 325 325 325 320 318 322 321 321 326 326 325 325 322 322 323 323 323
325 326 327 330 331 335 334 333 335 338 340 340 341 339 341 344 345 346 347 345 345 345 348 348 348 347 339 325 326 329 332 330 325 329 325 322 319 318 318 322 326 327 324 324 321 321 322 325 327
325 326 328 331 333 329 331 332 331 334 336 336 338 338 338 342 343 346 348 347 345 346 346 347 348 348 346 336 325 327 330 328 329 328 328 325 321 319 320 323 326 323 324 324 322 324 326 327 325
Wind_Speed
8 7 6 4 0 3 5 4 4 8 5 3 6 6 8 7 3 8 22 19 22 22 23 24 24 21 21 22 21 22 22 22 21 21 20 18 16 13 10 9 8 7 7 7 7 7 8 9 8
12 6 1 1 3 6 4 2 9 4 10 14 12 7 6 5 7 18 20 24 21 23 21 19 20 19 19 20 20 20 20 20 20 20 17 14 12 10 8 7 7 5 5 5 5 5 7 9 9
7 4 1 2 2 6 4 5 11 15 8 4 5 9 5 6 14 18 21 22 21 21 19 18 18 18 19 19 19 19 21 20 19 16 14 12 12 10 7 6 5 4 4 4 4 5 7 8 8
5 2 2 3 7 5 4 11 16 13 7 6 12 10 8 9 11 19 23 23 21 21 19 17 18 18 19 18 19 20 22 18 16 15 14 13 10 8 6 5 4 2 3 3 4 6 7 7 7
3 1 2 4 5 5 8 14 10 6 7 9 5 7 11 5 15 23 24 23 22 21 19 18 18 17 18 18 19 21 20 15 14 13 12 10 8 6 5 3 2 2 3 4 6 8 9 7 6
2 1 2 4 4 5 8 16 7 3 9 12 15 14 9 8 20 24 23 22 21 19 18 18 17 16 17 19 19 20 17 13 14 10 9 8 7 4 2 0 1 2 3 6 7 7 8 7 6
1 1 3 4 4 5 6 13 5 7 9 7 16 8 8 15 21 23 23 21 19 19 19 19 18 17 18 18 17 16 14 12 11 9 9 8 6 4 2 1 2 2 4 6 6 6 7 6 5
1 1 6 3 6 4 10 10 8 9 4 15 14 7 10 21 23 23 22 20 18 18 18 18 19 18 19 17 16 15 14 13 12 11 9 8 5 4 3 1 4 4 4 6 5 4 5 6 5
3 2 5 7 9 6 14 9 7 6 14 6 8 9 15 26 25 23 21 18 17 17 17 18 19 20 18 18 16 14 13 12 12 11 9 7 6 4 2 3 4 6 5 4 5 3 5 5 4
5 2 6 6 9 10 18 13 13 5 14 6 5 12 24 27 26 24 23 21 19 19 20 20 20 20 20 17 16 15 13 12 12 10 9 8 7 6 5 4 3 4 3 4 4 3 4 4 3
4 4 4 3 10 16 20 14 11 8 13 13 15 22 30 28 26 24 23 23 22 21 21 21 19 19 19 18 16 14 13 12 10 9 9 9 8 6 4 3 3 3 3 3 3 2 3 4 4
7 7 6 7 12 19 20 18 11 15 6 13 17 28 29 27 26 24 23 24 24 23 21 21 21 21 20 17 16 14 14 12 12 10 10 11 9 7 5 4 5 5 4 4 5 6 7 8 9
6 6 8 8 17 17 20 18 11 14 5 11 19 28 29 26 25 23 22 22 23 23 21 21 21 20 19 18 17 16 15 15 13 13 12 12 10 8 7 8 9 8 7 7 7 8 9 10 12
3 1 3 11 15 15 18 11 10 11 9 16 24 30 28 26 24 21 21 23 25 23 21 19 18 18 17 18 16 16 15 14 15 14 12 12 12 11 11 10 10 10 8 8 10 11 12 12 11
9 6 8 11 15 8 19 8 13 13 15 19 23 28 26 25 23 23 25 23 22 22 20 20 18 17 18 17 17 14 13 13 13 14 14 13 14 13 13 12 11 8 9 10 12 13 13 12 11
4 5 6 8 14 11 16 13 12 18 21 21 25 26 25 24 25 24 24 23 21 21 22 19 19 18 17 18 17 16 14 13 13 15 16 15 15 14 12 11 11 10 11 11 12 12 11 12 12
4 8 10 10 12 9 13 6 13 21 22 23 26 26 25 24 25 26 25 26 23 20 21 22 20 18 15 16 15 15 16 17 15 15 16 14 14 14 13 11 11 12 11 11 11 10 11 13 13
12 7 9 9 13 10 14 6 9 19 23 24 25 25 26 27 29 26 26 26 26 23 22 21 22 19 17 16 17 18 17 17 17 17 18 17 16 15 13 12 10 9 10 10 10 13 13 10 9
14 14 16 8 10 11 12 12 6 17 20 22 23 25 27 29 28 26 28 28 29 29 26 26 24 23 22 20 20 20 20 17 17 16 15 15 14 13 13 11 10 10 8 11 13 12 10 7 9
14 17 14 8 11 12 10 13 8 17 24 26 26 26 27 27 26 28 29 30 32 31 29 27 27 23 25 23 21 20 17 17 16 16 16 15 13 12 11 10 9 8 11 12 7 5 7 8 7
13 18 15 13 10 4 8 14 12 13 21 25 26 26 26 28 28 28 30 32 32 33 32 29 25 23 26 25 23 22 20 19 18 16 15 12 11 11 10 9 10 11 9 3 4 7 7 3 6
17 13 16 14 13 13 12 12 12 17 18 22 28 30 30 29 28 27 29 33 34 33 31 31 26 24 26 26 26 24 22 17 14 12 10 11 12 11 10 9 10 9 5 4 5 5 5 5 3
10 11 16 17 18 7 10 7 11 10 17 23 31 34 35 33 31 31 31 32 34 31 33 33 29 27 28 27 27 24 23 20 16 14 13 14 14 14 13 11 9 7 6 5 5 4 4 4 4
10 11 6 5 9 9 16 14 11 9 16 24 28 34 37 35 34 33 31 32 34 34 34 34 33 30 30 29 29 28 25 21 18 16 14 15 16 17 15 12 10 9 9 7 5 5 4 4 4
12 13 7 9 7 9 9 12 16 11 19 22 20 35 39 36 34 34 33 35 38 38 37 36 36 34 32 33 33 31 27 23 19 16 15 15 15 15 14 12 11 11 10 8 6 5 4 3 4
19 21 10 16 12 12 5 11 8 20 27 18 19 19 28 36 36 36 41 40 40 40 37 36 39 37 36 36 37 34 30 27 24 21 18 17 16 13 13 12 12 12 11 8 7 7 7 7 7
11 13 16 9 2 7 7 6 11 14 13 13 22 20 27 33 39 42 39 42 41 40 38 38 40 39 39 40 38 37 34 31 27 23 18 17 17 16 15 13 12 12 11 11 11 11 11 11 10
13 14 11 8 18 17 8 5 6 6 11 15 12 24 30 33 35 37 42 46 44 41 40 40 39 39 42 42 42 41 38 33 28 25 23 17 18 18 16 16 14 13 13 12 12 12 13 12 12
8 9 3 7 8 15 15 13 8 13 13 12 15 26 28 31 35 38 42 48 46 43 43 44 43 42 41 45 46 45 43 35 31 31 23 23 19 19 17 16 15 14 14 13 13 13 14 14 14
21 20 18 11 12 6 10 13 6 14 14 13 18 16 19 26 31 33 32 34 39 46 45 45 46 47 45 45 48 49 47 41 40 34 31 23 22 18 16 16 15 16 15 15 15 14 15 15 11
Wind_Direction
156 112 38 17 197 82 83 100 115 132 124 79 100 108 94 52 42 122 154 154 143 136 138 138 139 140 137 132 134 130 131 136 139 141 141 136 137 136 121 109 103 96 81 71 56 47 36 37 34
146 126 7 298 67 105 80 107 136 116 117 108 89 94 59 76 94 135 149 153 151 143 143 146 145 141 141 139 139 138 137 140 143 143 142 140 144 145 135 118 108 97 80 64 48 37 23 27 24
159 137 352 55 41 62 105 143 123 117 132 123 106 67 68 98 123 139 157 159 163 160 152 148 147 145 144 146 144 140 139 137 141 145 144 143 142 139 135 125 110 94 67 54 40 23 13 19 17
147 113 55 80 77 75 102 146 136 131 97 75 113 85 84 125 138 154 156 154 153 153 152 147 145 146 144 142 143 145 143 137 138 138 138 139 137 136 138 131 112 74 46 49 20 4 4 8 12
163 116 117 91 64 67 123 150 149 130 109 117 129 112 112 128 149 153 154 152 152 151 150 150 148 144 141 143 148 153 151 142 141 142 145 151 148 141 142 130 69 13 22 11 359 358 354 359 9
126 60 94 74 79 97 122 153 138 110 130 123 115 118 130 148 153 151 150 150 153 151 151 151 150 149 148 148 151 156 160 155 156 155 158 159 162 157 156 165 354 354 352 349 352 2 1 359 358
214 149 92 120 110 136 136 160 147 130 139 131 136 120 141 158 162 157 155 154 154 155 158 156 155 157 153 153 152 155 163 167 171 169 170 173 178 180 197 291 332 356 334 339 352 5 17 16 5
139 251 137 161 167 126 147 149 149 146 111 143 143 162 168 169 164 162 160 159 158 161 160 161 163 164 161 160 161 163 168 169 172 177 180 187 194 216 233 297 356 337 342 334 353 8 12 15 31
178 184 184 180 171 145 154 159 149 146 144 171 175 160 167 161 164 163 161 163 168 169 170 171 171 170 169 168 170 176 179 179 183 190 197 202 219 236 289 303 323 330 317 338 339 1 359 358 1
206 223 196 193 179 159 165 171 153 154 165 170 143 145 164 161 166 166 170 173 176 177 178 179 179 180 180 183 189 193 191 193 199 208 212 216 228 241 257 307 320 353 336 333 338 330 5 10 1
182 246 192 198 177 159 160 170 164 157 189 193 175 161 163 166 172 176 178 180 179 180 184 184 185 187 191 192 193 192 194 198 204 209 215 222 232 243 251 309 310 319 339 317 299 320 299 305 313
230 225 210 157 171 163 168 164 179 183 191 194 177 169 168 173 178 181 183 185 186 188 190 191 192 196 198 198 200 197 203 212 219 223 222 228 241 245 251 286 291 304 308 288 275 284 291 297 304
222 252 220 190 173 177 161 171 177 201 210 182 172 171 174 181 185 189 191 192 193 195 194 195 197 199 199 199 204 209 213 219 223 229 232 238 244 253 257 265 276 288 285 293 292 290 296 298 300
162 334 158 174 162 162 163 165 169 184 170 160 168 176 179 185 190 191 194 197 198 198 199 198 199 200 202 204 208 212 218 223 229 232 234 243 255 260 260 260 281 286 280 289 301 305 302 302 304
137 104 101 136 154 151 150 154 212 177 165 162 169 178 184 191 192 197 197 201 203 205 203 207 206 205 208 209 208 215 220 229 233 237 244 252 262 265 267 263 274 289 288 290 302 303 299 299 304
126 151 170 169 173 157 181 211 193 176 170 173 176 183 190 195 198 200 202 202 204 204 203 204 207 208 211 214 217 221 224 233 247 251 260 259 263 262 264 271 275 283 285 283 297 299 299 303 304
189 203 202 174 195 162 198 214 189 181 184 183 185 188 194 198 204 207 207 206 208 207 208 205 205 210 215 215 220 231 238 241 247 250 255 257 255 262 265 269 279 285 280 289 297 300 300 295 298
186 200 205 181 181 190 199 193 163 189 191 193 194 196 198 202 207 208 211 214 217 217 215 214 215 213 213 220 229 236 241 246 252 257 262 260 260 263 265 274 281 273 277 281 289 299 301 301 304
198 206 196 177 166 181 221 246 206 194 207 202 204 204 205 211 211 212 215 220 223 224 224 221 220 221 219 223 227 235 241 251 263 266 271 265 263 263 265 270 274 271 268 286 296 298 296 304 315
197 215 203 158 160 191 203 236 234 206 214 212 207 209 212 216 213 217 219 222 226 228 225 225 225 226 225 229 234 241 248 254 262 266 268 261 260 259 254 255 257 267 284 292 293 297 304 304 314
201 204 190 189 163 103 184 237 231 225 219 222 223 220 219 219 214 217 219 222 227 230 228 226 224 225 226 229 236 240 242 248 254 258 255 252 244 243 239 241 265 284 284 269 302 308 304 300 320
210 213 203 173 173 222 201 258 221 221 215 220 227 221 221 220 220 220 219 224 227 231 231 230 226 225 225 229 235 239 243 243 253 255 246 237 239 235 234 250 275 273 235 257 287 288 294 307 299
217 177 192 191 204 200 208 242 256 199 220 221 223 224 223 220 219 221 220 223 229 231 233 231 228 227 227 228 233 237 239 243 246 240 234 238 237 232 235 247 255 226 242 253 284 257 269 285 280
145 118 90 136 188 221 213 215 238 199 219 228 220 221 221 218 217 221 223 226 230 230 232 230 228 227 228 228 231 233 235 238 240 240 238 242 237 234 234 243 246 241 250 269 262 250 243 238 234
197 171 177 197 199 225 226 216 242 231 229 229 224 216 217 216 217 217 215 221 228 229 230 231 228 226 226 227 227 228 229 231 233 235 237 237 233 230 233 243 249 250 250 266 248 244 254 249 234
193 199 206 207 210 218 167 218 237 232 247 248 244 233 220 217 216 218 221 223 227 229 229 229 228 226 225 225 225 226 226 227 228 228 231 233 229 230 235 248 244 238 247 255 257 263 262 259 254
182 216 222 231 59 226 196 241 274 254 247 236 231 218 218 216 215 217 219 223 224 227 226 224 225 225 224 223 226 227 228 226 227 230 231 235 227 225 233 236 234 238 247 251 254 253 250 254 254
202 175 195 218 223 234 209 231 228 229 243 237 219 216 225 218 215 216 216 221 224 226 226 226 225 225 223 225 226 229 229 227 223 231 231 228 232 223 228 229 233 242 246 252 256 253 254 260 261
184 192 208 235 231 231 236 233 213 233 244 241 235 230 227 215 212 212 214 221 223 225 229 227 227 226 227 227 227 229 231 226 231 229 232 238 222 226 225 232 238 245 247 254 255 258 260 261 267
230 218 211 219 201 227 251 227 189 226 244 246 244 243 235 219 215 214 211 214 219 224 228 231 230 229 230 231 231 232 233 229 228 230 229 228 240 226 230 237 244 248 251 257 261 262 264 265 262